Home > Time Zones > World Clock > Weather > Mexico > Leon > Past weeks

Flag for Mexico Weather past 2 weeks in Leon, Guanajuato, Mexico

Now
88 °F

More clouds than sun.


Feels Like: 85 °F
Forecast: N/A
Wind: No wind

Location: Del Bajio / Leon


UV Index: N/A

Visibility: 10 mi


Pressure: 30.21 "Hg

Humidity: 24%

Dew point: 46 °F

Location of LeonLocation

Historic Weather in Leon

°F

Leon temperature yesterday

Maximum temperature yesterday: 88 °F (at 4:45 PM)
Minimum temperature yesterday: 55 °F (at 5:43 AM)
Average temperature yesterday: 71 °F

Past Weeks' High & Low Weather Summary

 TemperatureHumidityPressure
High93 °F (Apr 12, 3:50 PM)77% (Apr 19, 2:44 AM)30.38 "Hg (Apr 19, 2:44 AM)
Low52 °F (Apr 9, 5:46 AM)7% (Apr 9, 2:47 PM)29.52 "Hg (Apr 14, 6:49 PM)
Average72 °F29%30.02 "Hg
* Reported Apr 5 12:54 PM — Apr 20 1:47 PM, Leon, Weather by CustomWeather, © 2014

Note: Actual official high and low records may vary slightly from our data, if they occured in-between our weather recording intervals... More about our weather records

Advertising

Historic Weather Conditions — Data for Previous 24 hours

 ConditionsComfort  
Time TempWeatherWind HumidityBarometerVisibility
1:47 PM
Apr 20
84 °FMore clouds than sun.7 mph27%30.24 "Hg10 mi
12:45 PM82 °FMore clouds than sun.3 mph30%29.79 "Hg10 mi
11:45 AM79 °FOvercast.5 mph32%30.30 "Hg10 mi
10:50 AM77 °FOvercast.No wind34%30.30 "Hg10 mi
8:45 AM63 °FOvercast.5 mph59%30.30 "Hg10 mi
7:46 AM59 °FOvercast.No wind68%30.27 "Hg10 mi
6:44 AM61 °FPartly cloudy.5 mph68%29.83 "Hg8 mi
5:43 AM61 °FPartly cloudy.No wind68%30.27 "Hg8 mi
3:46 AM64 °FPartly cloudy.No wind64%29.76 "Hg8 mi
11:44 PM
Apr 19
72 °FPartly cloudy.7 mph44%30.27 "Hg8 mi
10:46 PM73 °FOvercast.15 mph41%30.21 "Hg8 mi
9:48 PM73 °FPartly cloudy.15 mph41%29.72 "Hg8 mi
8:45 PM77 °FPartly sunny.14 mph36%30.15 "Hg8 mi
7:47 PM81 °FPartly sunny.7 mph28%30.12 "Hg10 mi
5:59 PM82 °FPartly sunny.9 mph21%30.12 "Hg10 mi
4:45 PM88 °FBroken clouds.9 mph21%30.12 "Hg10 mi
Weather by CustomWeather, © 2014

See weather overview